| time (UTC) | temp F | wind direction | speed MPH | gust MPH | rain 1hr in | rain 24hr in | rain mn in | humidity % | barometer mb |
| 20260510182901 | 43 | 316 | 4.0 | 7.0 | 0.00 | 0.00 | 0.00 | 52 | 1022.2 |
| 20260510182358 | 44 | 275 | 2.0 | 9.0 | 0.00 | 0.00 | 0.00 | 55 | 1022.0 |
| 20260510181853 | 43 | 291 | 2.0 | 8.0 | 0.00 | 0.00 | 0.00 | 59 | 1021.9 |
| 20260510181351 | 44 | 291 | 5.0 | 11.0 | 0.00 | 0.00 | 0.00 | 53 | 1021.9 |
| 20260510180847 | 44 | 249 | 4.0 | 9.0 | 0.00 | 0.00 | 0.00 | 55 | 1021.7 |
| 20260510180344 | 44 | 271 | 3.0 | 7.0 | 0.00 | 0.00 | 0.00 | 56 | 1022.0 |
| 20260510175841 | 43 | 274 | 4.0 | 7.0 | 0.00 | 0.00 | 0.00 | 56 | 1021.7 |
| 20260510175337 | 44 | 279 | 5.0 | 7.0 | 0.00 | 0.00 | 0.00 | 51 | 1021.7 |
| 20260510174833 | 44 | 45 | 2.0 | 3.0 | 0.00 | 0.00 | 0.00 | 53 | 1021.5 |
| 20260510174331 | 43 | 276 | 6.0 | 9.0 | 0.00 | 0.00 | 0.00 | 52 | 1021.7 |
| 20260510173827 | 42 | 298 | 5.0 | 7.0 | 0.00 | 0.00 | 0.00 | 53 | 1021.3 |
| 20260510173323 | 42 | 294 | 6.0 | 9.0 | 0.00 | 0.00 | 0.00 | 54 | 1021.4 |
| 20260510172819 | 44 | 265 | 3.0 | 8.0 | 0.00 | 0.00 | 0.00 | 54 | 1021.3 |
| 20260510172316 | 43 | 293 | 3.0 | 4.0 | 0.00 | 0.00 | 0.00 | 55 | 1021.2 |
| 20260510171812 | 44 | 263 | 2.0 | 2.0 | 0.00 | 0.00 | 0.00 | 55 | 1021.3 |
| 20260510171309 | 45 | 215 | 2.0 | 6.0 | 0.00 | 0.00 | 0.00 | 52 | 1021.2 |
| 20260510170806 | 43 | 235 | 1.0 | 6.0 | 0.00 | 0.00 | 0.00 | 55 | 1021.1 |
| 20260510170302 | 42 | 322 | 5.0 | 8.0 | 0.00 | 0.00 | 0.00 | 56 | 1021.3 |
| 20260510165758 | 44 | 270 | 1.0 | 3.0 | 0.00 | 0.00 | 0.00 | 54 | 1021.2 |
| 20260510165254 | 44 | 334 | 2.0 | 3.0 | 0.00 | 0.00 | 0.00 | 55 | 1021.2 |
| 20260510164752 | 43 | 259 | 3.0 | 7.0 | 0.00 | 0.00 | 0.00 | 53 | 1021.1 |
| 20260510164249 | 44 | 272 | 0.0 | 3.0 | 0.00 | 0.00 | 0.00 | 53 | 1021.1 |
| 20260510163749 | 43 | 296 | 0.0 | 3.0 | 0.00 | 0.00 | 0.00 | 58 | 1021.1 |
| 20260510163245 | 42 | 346 | 1.0 | 6.0 | 0.00 | 0.00 | 0.00 | 55 | 1021.0 |
| 20260510162745 | 43 | 301 | 2.0 | 3.0 | 0.00 | 0.00 | 0.00 | 55 | 1020.9 |
| 20260510162243 | 42 | 265 | 2.0 | 8.0 | 0.00 | 0.00 | 0.00 | 59 | 1020.7 |
| 20260510161738 | 42 | 245 | 0.0 | 7.0 | 0.00 | 0.00 | 0.00 | 58 | 1020.8 |
| 20260510161234 | 44 | 296 | 2.0 | 4.0 | 0.00 | 0.00 | 0.00 | 53 | 1020.6 |
| 20260510160732 | 44 | 263 | 2.0 | 3.0 | 0.00 | 0.00 | 0.00 | 54 | 1020.6 |
| 20260510160227 | 43 | 65 | 0.0 | 3.0 | 0.00 | 0.00 | 0.00 | 56 | 1020.5 |
| 20260510155723 | 43 | 287 | 1.0 | 6.0 | 0.00 | 0.00 | 0.00 | 58 | 1020.6 |
| 20260510155219 | 42 | 270 | 2.0 | 4.0 | 0.00 | 0.00 | 0.00 | 58 | 1020.4 |
| 20260510154715 | 42 | 299 | 1.0 | 3.0 | 0.00 | 0.00 | 0.00 | 61 | 1020.5 |
| 20260510154211 | 41 | 89 | 2.0 | 8.0 | 0.00 | 0.00 | 0.00 | 61 | 1020.5 |
| 20260510153706 | 42 | 296 | 2.0 | 4.0 | 0.00 | 0.00 | 0.00 | 60 | 1020.3 |
| 20260510153202 | 41 | 262 | 2.0 | 3.0 | 0.00 | 0.00 | 0.00 | 62 | 1020.1 |
| 20260510152659 | 41 | 229 | 2.0 | 7.0 | 0.00 | 0.00 | 0.00 | 60 | 1020.2 |
| 20260510152155 | 43 | 253 | 1.0 | 4.0 | 0.00 | 0.00 | 0.00 | 63 | 1020.0 |
| 20260510151652 | 42 | 271 | 2.0 | 4.0 | 0.00 | 0.00 | 0.00 | 60 | 1019.9 |
| 20260510151151 | 41 | 289 | 2.0 | 4.0 | 0.00 | 0.00 | 0.00 | 63 | 1020.1 |
| 20260510150646 | 41 | 292 | 4.0 | 8.0 | 0.00 | 0.00 | 0.00 | 63 | 1020.1 |
| 20260510150141 | 43 | 254 | 2.0 | 3.0 | 0.00 | 0.00 | 0.00 | 63 | 1019.7 |
| 20260510145638 | 42 | 205 | 1.0 | 4.0 | 0.00 | 0.00 | 0.00 | 62 | 1019.7 |
| 20260510145134 | 41 | 264 | 2.0 | 7.0 | 0.00 | 0.00 | 0.00 | 67 | 1019.5 |
| 20260510144630 | 42 | 273 | 2.0 | 3.0 | 0.00 | 0.00 | 0.00 | 66 | 1019.5 |
| 20260510144127 | 42 | 119 | 1.0 | 6.0 | 0.00 | 0.00 | 0.00 | 63 | 1019.7 |
| 20260510143622 | 41 | 239 | 1.0 | 6.0 | 0.00 | 0.00 | 0.00 | 69 | 1019.4 |
| 20260510143119 | 41 | 265 | 2.0 | 6.0 | 0.00 | 0.00 | 0.00 | 71 | 1019.5 |
| 20260510142616 | 41 | 270 | 3.0 | 7.0 | 0.00 | 0.00 | 0.00 | 68 | 1019.5 |
| 20260510142113 | 40 | 270 | 3.0 | 6.0 | 0.00 | 0.00 | 0.00 | 71 | 1019.4 |
| 20260510141609 | 40 | 309 | 1.0 | 3.0 | 0.00 | 0.00 | 0.00 | 71 | 1019.4 |
| 20260510141108 | 39 | 286 | 2.0 | 3.0 | 0.00 | 0.00 | 0.00 | 73 | 1019.3 |
| 20260510140603 | 39 | 265 | 2.0 | 4.0 | 0.00 | 0.00 | 0.00 | 73 | 1019.2 |
| 20260510135558 | 39 | 295 | 1.0 | 2.0 | 0.00 | 0.00 | 0.00 | 74 | 1019.1 |
| 20260510135054 | 39 | 271 | 1.0 | 2.0 | 0.00 | 0.00 | 0.00 | 78 | 1019.0 |
| 20260510134551 | 38 | 242 | 1.0 | 2.0 | 0.00 | 0.00 | 0.00 | 78 | 1019.1 |
| 20260510134048 | 38 | 266 | 0.0 | 2.0 | 0.00 | 0.00 | 0.00 | 77 | 1019.1 |
| 20260510133544 | 38 | 285 | 1.0 | 4.0 | 0.00 | 0.00 | 0.00 | 81 | 1018.9 |
| 20260510133040 | 38 | 275 | 2.0 | 4.0 | 0.00 | 0.00 | 0.00 | 80 | 1018.9 |
| 20260510132537 | 38 | 279 | 1.0 | 3.0 | 0.00 | 0.00 | 0.00 | 81 | 1018.9 |
| 20260510132034 | 37 | 269 | 0.0 | 2.0 | 0.00 | 0.00 | 0.00 | 83 | 1018.9 |
| 20260510131532 | 37 | 269 | 2.0 | 3.0 | 0.00 | 0.00 | 0.00 | 82 | 1018.9 |
| 20260510131029 | 37 | 295 | 1.0 | 3.0 | 0.00 | 0.00 | 0.00 | 84 | 1018.8 |
| 20260510130525 | 37 | 301 | 2.0 | 3.0 | 0.00 | 0.00 | 0.00 | 85 | 1018.6 |
| 20260510130022 | 37 | 271 | 2.0 | 3.0 | 0.00 | 0.00 | 0.00 | 85 | 1018.7 |
| 20260510125519 | 37 | 265 | 2.0 | 6.0 | 0.00 | 0.00 | 0.00 | 83 | 1018.4 |
| 20260510125015 | 37 | 286 | 2.0 | 2.0 | 0.00 | 0.00 | 0.00 | 85 | 1018.5 |
| 20260510124512 | 37 | 270 | 4.0 | 6.0 | 0.00 | 0.00 | 0.00 | 85 | 1018.4 |
| 20260510124009 | 37 | 258 | 0.0 | 3.0 | 0.00 | 0.00 | 0.00 | 86 | 1018.4 |
| 20260510123504 | 37 | 263 | 1.0 | 3.0 | 0.00 | 0.00 | 0.00 | 86 | 1018.3 |
| 20260510123000 | 37 | 273 | 1.0 | 3.0 | 0.00 | 0.00 | 0.00 | 86 | 1018.0 |
| 20260510122456 | 37 | 254 | 2.0 | 3.0 | 0.00 | 0.00 | 0.00 | 86 | 1018.1 |
| 20260510121952 | 37 | 290 | 2.0 | 3.0 | 0.00 | 0.00 | 0.00 | 86 | 1017.8 |
| 20260510121450 | 37 | 263 | 1.0 | 4.0 | 0.00 | 0.00 | 0.00 | 86 | 1017.8 |
| 20260510120947 | 37 | 277 | 0.0 | 0.0 | 0.00 | 0.00 | 0.00 | 88 | 1017.8 |
| 20260510120444 | 36 | 283 | 1.0 | 2.0 | 0.00 | 0.00 | 0.00 | 87 | 1017.7 |
| 20260510115940 | 36 | 267 | 2.0 | 2.0 | 0.00 | 0.00 | 0.00 | 87 | 1017.5 |
| 20260510115437 | 36 | 296 | 1.0 | 2.0 | 0.00 | 0.00 | 0.00 | 87 | 1017.6 |
| 20260510114933 | 36 | 283 | 1.0 | 1.0 | 0.00 | 0.00 | 0.00 | 87 | 1017.5 |
| 20260510114430 | 36 | 273 | 1.0 | 2.0 | 0.00 | 0.00 | 0.00 | 87 | 1017.4 |
| 20260510113925 | 36 | 274 | 0.0 | 1.0 | 0.00 | 0.00 | 0.00 | 87 | 1017.4 |
| 20260510113421 | 36 | 268 | 1.0 | 2.0 | 0.00 | 0.00 | 0.00 | 87 | 1017.4 |
| 20260510112919 | 36 | 271 | 0.0 | 1.0 | 0.00 | 0.00 | 0.00 | 87 | 1017.3 |
| 20260510112416 | 36 | 271 | 0.0 | 2.0 | 0.00 | 0.00 | 0.00 | 88 | 1017.1 |
| 20260510111912 | 35 | 266 | 1.0 | 1.0 | 0.00 | 0.00 | 0.00 | 88 | 1017.0 |
| 20260510111408 | 35 | 270 | 0.0 | 1.0 | 0.00 | 0.00 | 0.00 | 87 | 1017.1 |
| 20260510110903 | 35 | 268 | 2.0 | 3.0 | 0.00 | 0.00 | 0.00 | 87 | 1017.0 |
| 20260510110401 | 35 | 271 | 0.0 | 1.0 | 0.00 | 0.00 | 0.00 | 87 | 1017.0 |
| 20260510105857 | 35 | 271 | 0.0 | 1.0 | 0.00 | 0.00 | 0.00 | 88 | 1016.9 |
| 20260510105357 | 35 | 273 | 1.0 | 1.0 | 0.00 | 0.00 | 0.00 | 88 | 1016.7 |
| 20260510104853 | 35 | 267 | 0.0 | 0.0 | 0.00 | 0.00 | 0.00 | 87 | 1016.7 |
| 20260510104350 | 35 | 264 | 1.0 | 1.0 | 0.00 | 0.00 | 0.00 | 88 | 1016.6 |
| 20260510103846 | 35 | 262 | 0.0 | 0.0 | 0.00 | 0.00 | 0.00 | 88 | 1016.5 |
| 20260510103343 | 35 | 271 | 0.0 | 1.0 | 0.00 | 0.00 | 0.00 | 88 | 1016.4 |
| 20260510102839 | 35 | 267 | 0.0 | 0.0 | 0.00 | 0.00 | 0.00 | 89 | 1016.2 |
| 20260510102334 | 35 | 284 | 2.0 | 2.0 | 0.00 | 0.00 | 0.00 | 89 | 1016.2 |
| 20260510101832 | 35 | 275 | 0.0 | 1.0 | 0.00 | 0.00 | 0.00 | 90 | 1016.3 |
| 20260510101330 | 35 | 281 | 0.0 | 0.0 | 0.00 | 0.00 | 0.00 | 90 | 1016.0 |
| 20260510100825 | 35 | 275 | 0.0 | 2.0 | 0.00 | 0.00 | 0.00 | 89 | 1016.2 |
| 20260510100324 | 34 | 274 | 2.0 | 2.0 | 0.00 | 0.00 | 0.00 | 89 | 1016.1 |
| 20260510095820 | 34 | 272 | 0.0 | 1.0 | 0.00 | 0.00 | 0.00 | 90 | 1016.1 |
| 20260510095315 | 34 | 269 | 0.0 | 0.0 | 0.00 | 0.00 | 0.00 | 90 | 1016.0 |
| 20260510094814 | 34 | 269 | 0.0 | 0.0 | 0.00 | 0.00 | 0.00 | 90 | 1015.8 |
| 20260510094310 | 34 | 270 | 1.0 | 1.0 | 0.00 | 0.00 | 0.00 | 90 | 1015.8 |
| 20260510093806 | 34 | 267 | 0.0 | 1.0 | 0.00 | 0.00 | 0.00 | 90 | 1015.7 |
| 20260510093303 | 34 | 267 | 1.0 | 3.0 | 0.00 | 0.00 | 0.00 | 92 | 1015.5 |
| 20260510092759 | 33 | 267 | 1.0 | 1.0 | 0.00 | 0.00 | 0.00 | 93 | 1015.6 |
| 20260510092255 | 33 | 273 | 0.0 | 0.0 | 0.00 | 0.00 | 0.00 | 94 | 1015.5 |
| 20260510091750 | 33 | 273 | 0.0 | 1.0 | 0.00 | 0.00 | 0.00 | 94 | 1015.5 |
| 20260510091248 | 33 | 273 | 0.0 | 0.0 | 0.00 | 0.00 | 0.00 | 94 | 1015.5 |
| 20260510090744 | 33 | 272 | 0.0 | 0.0 | 0.00 | 0.00 | 0.00 | 94 | 1015.3 |
| 20260510090242 | 33 | 273 | 0.0 | 0.0 | 0.00 | 0.00 | 0.00 | 93 | 1015.4 |
| 20260510085736 | 33 | 273 | 0.0 | 0.0 | 0.00 | 0.00 | 0.00 | 93 | 1015.2 |
| 20260510085231 | 33 | 273 | 0.0 | 0.0 | 0.00 | 0.00 | 0.00 | 92 | 1015.3 |
| 20260510084728 | 33 | 272 | 0.0 | 1.0 | 0.00 | 0.00 | 0.00 | 92 | 1015.1 |
| 20260510084225 | 33 | 282 | 0.0 | 0.0 | 0.00 | 0.00 | 0.00 | 92 | 1015.2 |
| 20260510083721 | 33 | 269 | 0.0 | 0.0 | 0.00 | 0.00 | 0.00 | 92 | 1015.1 |
| 20260510083219 | 33 | 276 | 0.0 | 0.0 | 0.00 | 0.00 | 0.00 | 92 | 1014.9 |
| 20260510082714 | 33 | 272 | 0.0 | 0.0 | 0.00 | 0.00 | 0.00 | 92 | 1015.0 |
| 20260510082211 | 33 | 272 | 0.0 | 0.0 | 0.00 | 0.00 | 0.00 | 91 | 1015.0 |
| 20260510081704 | 33 | 272 | 0.0 | 0.0 | 0.00 | 0.00 | 0.00 | 91 | 1014.9 |
| 20260510081201 | 34 | 273 | 1.0 | 1.0 | 0.00 | 0.00 | 0.00 | 90 | 1015.1 |
| 20260510080700 | 34 | 273 | 0.0 | 0.0 | 0.00 | 0.00 | 0.00 | 89 | 1014.9 |
| 20260510080157 | 34 | 275 | 0.0 | 3.0 | 0.00 | 0.00 | 0.00 | 89 | 1015.0 |
| 20260510075654 | 35 | 272 | 0.0 | 0.0 | 0.00 | 0.00 | 0.00 | 88 | 1014.9 |
| 20260510075152 | 35 | 272 | 0.0 | 3.0 | 0.00 | 0.00 | 0.00 | 87 | 1014.7 |
| 20260510074649 | 35 | 297 | 1.0 | 2.0 | 0.00 | 0.00 | 0.00 | 87 | 1014.7 |
| 20260510074144 | 35 | 268 | 0.0 | 0.0 | 0.00 | 0.00 | 0.00 | 86 | 1014.6 |
| 20260510073641 | 36 | 270 | 0.0 | 3.0 | 0.00 | 0.00 | 0.00 | 85 | 1014.4 |
| 20260510073137 | 36 | 261 | 1.0 | 2.0 | 0.00 | 0.00 | 0.00 | 84 | 1014.3 |
| 20260510072633 | 36 | 291 | 2.0 | 3.0 | 0.00 | 0.00 | 0.00 | 84 | 1014.3 |
| 20260510072130 | 37 | 272 | 0.0 | 0.0 | 0.00 | 0.00 | 0.00 | 83 | 1014.4 |
| 20260510071626 | 37 | 273 | 0.0 | 2.0 | 0.00 | 0.00 | 0.00 | 82 | 1014.2 |
| 20260510071124 | 37 | 287 | 1.0 | 4.0 | 0.00 | 0.00 | 0.00 | 82 | 1014.4 |
| 20260510070621 | 37 | 307 | 2.0 | 9.0 | 0.00 | 0.00 | 0.00 | 82 | 1014.3 |
| 20260510070118 | 37 | 316 | 4.0 | 4.0 | 0.00 | 0.00 | 0.00 | 84 | 1014.4 |
| 20260510065614 | 37 | 280 | 0.0 | 1.0 | 0.00 | 0.00 | 0.00 | 83 | 1014.3 |
| 20260510065110 | 37 | 282 | 1.0 | 3.0 | 0.00 | 0.00 | 0.00 | 81 | 1014.3 |
| 20260510064607 | 37 | 266 | 0.0 | 4.0 | 0.00 | 0.00 | 0.00 | 81 | 1014.2 |
| 20260510064104 | 37 | 277 | 2.0 | 2.0 | 0.00 | 0.00 | 0.00 | 80 | 1014.2 |
| 20260510063600 | 37 | 264 | 4.0 | 4.0 | 0.00 | 0.00 | 0.00 | 80 | 1014.3 |
| 20260510063058 | 38 | 256 | 4.0 | 6.0 | 0.00 | 0.00 | 0.00 | 79 | 1014.2 |
| 20260510062553 | 37 | 344 | 1.0 | 3.0 | 0.00 | 0.00 | 0.00 | 80 | 1014.2 |
| 20260510062049 | 37 | 265 | 0.0 | 0.0 | 0.00 | 0.00 | 0.00 | 80 | 1014.0 |
| 20260510061545 | 37 | 266 | 0.0 | 0.0 | 0.00 | 0.00 | 0.00 | 80 | 1013.9 |
| 20260510061042 | 38 | 271 | 2.0 | 3.0 | 0.00 | 0.00 | 0.00 | 79 | 1014.0 |
| 20260510060538 | 38 | 293 | 1.0 | 2.0 | 0.00 | 0.00 | 0.00 | 79 | 1014.2 |
| 20260510060035 | 38 | 266 | 1.0 | 2.0 | 0.00 | 0.00 | 0.00 | 79 | 1014.1 |
| 20260510055531 | 38 | 249 | 0.0 | 2.0 | 0.00 | 0.00 | 0.00 | 79 | 1014.1 |
| 20260510055029 | 38 | 255 | 1.0 | 3.0 | 0.00 | 0.00 | 0.00 | 79 | 1014.0 |
| 20260510054525 | 38 | 281 | 2.0 | 3.0 | 0.00 | 0.00 | 0.00 | 79 | 1013.9 |
| 20260510054020 | 38 | 273 | 1.0 | 2.0 | 0.00 | 0.00 | 0.00 | 78 | 1014.2 |
| 20260510053515 | 38 | 275 | 1.0 | 3.0 | 0.00 | 0.00 | 0.00 | 78 | 1014.1 |
| 20260510053012 | 38 | 266 | 2.0 | 4.0 | 0.00 | 0.00 | 0.00 | 77 | 1014.0 |
| 20260510052508 | 38 | 290 | 0.0 | 3.0 | 0.00 | 0.00 | 0.00 | 78 | 1014.1 |
| 20260510052004 | 38 | 270 | 0.0 | 1.0 | 0.00 | 0.00 | 0.00 | 78 | 1014.1 |
| 20260510051500 | 38 | 267 | 0.0 | 0.0 | 0.00 | 0.00 | 0.00 | 79 | 1014.1 |
| 20260510050956 | 38 | 279 | 0.0 | 2.0 | 0.00 | 0.00 | 0.00 | 78 | 1013.9 |
| 20260510050454 | 38 | 274 | 0.0 | 2.0 | 0.00 | 0.00 | 0.00 | 78 | 1014.0 |
| 20260510045951 | 38 | 316 | 2.0 | 2.0 | 0.00 | 0.00 | 0.00 | 78 | 1014.1 |
| 20260510045448 | 38 | 277 | 2.0 | 2.0 | 0.00 | 0.00 | 0.00 | 77 | 1014.2 |
| 20260510044944 | 38 | 269 | 1.0 | 3.0 | 0.00 | 0.00 | 0.00 | 77 | 1014.1 |
| 20260510044441 | 38 | 267 | 1.0 | 3.0 | 0.00 | 0.00 | 0.00 | 76 | 1014.0 |
| 20260510043938 | 38 | 267 | 1.0 | 1.0 | 0.00 | 0.00 | 0.00 | 77 | 1014.0 |
| 20260510043434 | 37 | 263 | 1.0 | 2.0 | 0.00 | 0.00 | 0.00 | 79 | 1013.9 |
| 20260510042932 | 37 | 275 | 0.0 | 0.0 | 0.00 | 0.00 | 0.00 | 80 | 1014.0 |
| 20260510042428 | 37 | 275 | 0.0 | 0.0 | 0.00 | 0.00 | 0.00 | 81 | 1013.9 |
| 20260510041924 | 37 | 275 | 0.0 | 0.0 | 0.00 | 0.00 | 0.00 | 80 | 1013.8 |
| 20260510041421 | 37 | 275 | 0.0 | 0.0 | 0.00 | 0.00 | 0.00 | 79 | 1013.8 |
| 20260510040919 | 37 | 273 | 0.0 | 0.0 | 0.00 | 0.00 | 0.00 | 79 | 1013.9 |
| 20260510040415 | 37 | 280 | 0.0 | 0.0 | 0.00 | 0.00 | 0.00 | 80 | 1013.8 |
| 20260510035911 | 37 | 272 | 0.0 | 1.0 | 0.00 | 0.00 | 0.00 | 80 | 1013.8 |
| 20260510035408 | 37 | 275 | 0.0 | 0.0 | 0.00 | 0.00 | 0.00 | 81 | 1013.6 |
| 20260510034902 | 37 | 275 | 0.0 | 0.0 | 0.00 | 0.00 | 0.00 | 81 | 1013.6 |
| 20260510034401 | 37 | 275 | 0.0 | 0.0 | 0.00 | 0.00 | 0.00 | 82 | 1013.6 |
| 20260510033857 | 37 | 275 | 0.0 | 0.0 | 0.00 | 0.00 | 0.00 | 80 | 1013.7 |
| 20260510033353 | 37 | 280 | 0.0 | 0.0 | 0.00 | 0.00 | 0.00 | 80 | 1013.7 |
| 20260510032850 | 37 | 266 | 0.0 | 0.0 | 0.00 | 0.00 | 0.00 | 80 | 1013.7 |
| 20260510032347 | 37 | 266 | 0.0 | 0.0 | 0.00 | 0.00 | 0.00 | 80 | 1013.8 |
| 20260510031842 | 38 | 266 | 0.0 | 0.0 | 0.00 | 0.00 | 0.00 | 80 | 1013.7 |
| 20260510031338 | 38 | 266 | 0.0 | 0.0 | 0.00 | 0.00 | 0.00 | 79 | 1013.8 |
| 20260510030838 | 38 | 265 | 0.0 | 3.0 | 0.00 | 0.00 | 0.00 | 78 | 1013.8 |
| 20260510030334 | 38 | 263 | 0.0 | 0.0 | 0.00 | 0.00 | 0.00 | 79 | 1013.7 |
| 20260510025832 | 38 | 286 | 2.0 | 3.0 | 0.00 | 0.00 | 0.00 | 78 | 1014.0 |
| 20260510025329 | 38 | 280 | 0.0 | 1.0 | 0.00 | 0.00 | 0.00 | 77 | 1014.1 |
| 20260510024826 | 38 | 266 | 4.0 | 4.0 | 0.00 | 0.00 | 0.00 | 77 | 1014.0 |
| 20260510024323 | 39 | 318 | 2.0 | 6.0 | 0.00 | 0.00 | 0.00 | 76 | 1014.0 |
| 20260510023819 | 39 | 289 | 3.0 | 3.0 | 0.00 | 0.00 | 0.00 | 77 | 1013.8 |
| 20260510023315 | 38 | 288 | 3.0 | 3.0 | 0.00 | 0.00 | 0.00 | 77 | 1014.0 |
| 20260510022813 | 38 | 284 | 1.0 | 2.0 | 0.00 | 0.00 | 0.00 | 78 | 1013.8 |
| 20260510022312 | 38 | 268 | 0.0 | 1.0 | 0.00 | 0.00 | 0.00 | 78 | 1013.5 |
| 20260510021811 | 38 | 278 | 0.0 | 0.0 | 0.00 | 0.00 | 0.00 | 78 | 1013.3 |
| 20260510021310 | 38 | 278 | 0.0 | 1.0 | 0.00 | 0.00 | 0.00 | 77 | 1013.2 |
| 20260510020805 | 38 | 269 | 0.0 | 0.0 | 0.00 | 0.00 | 0.00 | 76 | 1013.1 |
| 20260510020305 | 38 | 269 | 0.0 | 0.0 | 0.00 | 0.00 | 0.00 | 77 | 1013.1 |
| 20260510015802 | 38 | 268 | 1.0 | 2.0 | 0.00 | 0.00 | 0.00 | 76 | 1013.1 |
| 20260510015258 | 38 | 264 | 0.0 | 0.0 | 0.00 | 0.00 | 0.00 | 75 | 1013.0 |
| 20260510014753 | 39 | 263 | 0.0 | 1.0 | 0.00 | 0.00 | 0.00 | 75 | 1012.8 |
| 20260510014250 | 39 | 273 | 2.0 | 2.0 | 0.00 | 0.00 | 0.00 | 74 | 1012.6 |
| 20260510013746 | 39 | 265 | 0.0 | 2.0 | 0.00 | 0.00 | 0.00 | 73 | 1012.6 |
| 20260510013242 | 39 | 271 | 1.0 | 2.0 | 0.00 | 0.00 | 0.00 | 73 | 1012.5 |
| 20260510012737 | 39 | 274 | 2.0 | 3.0 | 0.00 | 0.00 | 0.00 | 72 | 1012.6 |
| 20260510012232 | 39 | 280 | 1.0 | 2.0 | 0.00 | 0.00 | 0.00 | 72 | 1012.5 |
| 20260510011731 | 40 | 310 | 2.0 | 3.0 | 0.00 | 0.00 | 0.00 | 72 | 1012.5 |
| 20260510011228 | 40 | 266 | 1.0 | 3.0 | 0.00 | 0.00 | 0.00 | 72 | 1012.4 |
| 20260510010725 | 40 | 276 | 1.0 | 3.0 | 0.00 | 0.00 | 0.00 | 71 | 1012.3 |
| 20260510010221 | 40 | 313 | 4.0 | 7.0 | 0.00 | 0.00 | 0.00 | 69 | 1012.4 |
| 20260510005718 | 41 | 271 | 1.0 | 7.0 | 0.00 | 0.00 | 0.00 | 69 | 1012.3 |
| 20260510005214 | 41 | 269 | 2.0 | 7.0 | 0.00 | 0.00 | 0.00 | 68 | 1012.1 |
| 20260510004712 | 41 | 277 | 5.0 | 6.0 | 0.00 | 0.00 | 0.00 | 68 | 1012.1 |
| 20260510004210 | 41 | 267 | 2.0 | 3.0 | 0.00 | 0.00 | 0.00 | 69 | 1011.9 |
| 20260510003707 | 41 | 288 | 2.0 | 3.0 | 0.00 | 0.00 | 0.00 | 68 | 1012.0 |
| 20260510003203 | 41 | 271 | 2.0 | 6.0 | 0.00 | 0.00 | 0.00 | 66 | 1011.9 |
| 20260510002658 | 41 | 275 | 2.0 | 4.0 | 0.00 | 0.00 | 0.00 | 67 | 1011.8 |
| 20260510002155 | 41 | 278 | 3.0 | 6.0 | 0.00 | 0.00 | 0.00 | 66 | 1012.1 |
| 20260510001652 | 41 | 269 | 4.0 | 6.0 | 0.00 | 0.00 | 0.00 | 65 | 1011.8 |
| 20260510001150 | 41 | 277 | 3.0 | 3.0 | 0.00 | 0.00 | 0.00 | 66 | 1011.8 |
| 20260510000650 | 41 | 277 | 4.0 | 9.0 | 0.00 | 0.00 | 0.00 | 65 | 1011.8 |
| 20260510000148 | 41 | 287 | 2.0 | 7.0 | 0.00 | 0.00 | 0.00 | 65 | 1011.7 |
| 20260509235644 | 42 | 277 | 4.0 | 4.0 | 0.00 | 0.00 | 0.00 | 65 | 1011.6 |
| 20260509235141 | 42 | 312 | 2.0 | 4.0 | 0.00 | 0.00 | 0.00 | 64 | 1011.6 |
| 20260509234637 | 42 | 263 | 6.0 | 9.0 | 0.00 | 0.00 | 0.00 | 63 | 1011.4 |
| 20260509234134 | 42 | 275 | 7.0 | 9.0 | 0.00 | 0.00 | 0.00 | 62 | 1011.4 |
| 20260509233632 | 42 | 274 | 2.0 | 3.0 | 0.00 | 0.00 | 0.00 | 62 | 1011.1 |
| 20260509233129 | 42 | 230 | 5.0 | 8.0 | 0.00 | 0.00 | 0.00 | 61 | 1011.1 |
| 20260509232625 | 42 | 297 | 7.0 | 8.0 | 0.00 | 0.00 | 0.00 | 61 | 1011.1 |
| 20260509232122 | 42 | 281 | 2.0 | 10.0 | 0.00 | 0.00 | 0.00 | 62 | 1011.1 |
| 20260509231619 | 42 | 278 | 5.0 | 8.0 | 0.00 | 0.00 | 0.00 | 61 | 1011.1 |
| 20260509231117 | 42 | 303 | 3.0 | 9.0 | 0.00 | 0.00 | 0.00 | 60 | 1011.0 |
| 20260509230613 | 42 | 264 | 8.0 | 11.0 | 0.00 | 0.00 | 0.00 | 60 | 1011.1 |
| 20260509230111 | 42 | 266 | 2.0 | 13.0 | 0.00 | 0.00 | 0.00 | 61 | 1010.8 |
| 20260509225606 | 43 | 283 | 5.0 | 8.0 | 0.00 | 0.00 | 0.00 | 58 | 1010.9 |
| 20260509225101 | 43 | 16 | 4.0 | 8.0 | 0.00 | 0.00 | 0.00 | 58 | 1010.8 |
| 20260509224557 | 43 | 284 | 5.0 | 10.0 | 0.00 | 0.00 | 0.00 | 58 | 1010.7 |
| 20260509224055 | 43 | 295 | 3.0 | 7.0 | 0.00 | 0.00 | 0.00 | 58 | 1010.7 |
| 20260509223551 | 43 | 320 | 3.0 | 7.0 | 0.00 | 0.00 | 0.00 | 59 | 1010.8 |
| 20260509223049 | 43 | 290 | 2.0 | 10.0 | 0.00 | 0.00 | 0.00 | 59 | 1010.7 |
| 20260509222545 | 43 | 300 | 3.0 | 7.0 | 0.00 | 0.00 | 0.00 | 61 | 1010.6 |
| 20260509222041 | 44 | 281 | 6.0 | 14.0 | 0.00 | 0.00 | 0.00 | 60 | 1010.4 |
| 20260509221537 | 45 | 253 | 7.0 | 10.0 | 0.00 | 0.00 | 0.00 | 56 | 1010.5 |
| 20260509221033 | 45 | 266 | 4.0 | 8.0 | 0.00 | 0.00 | 0.00 | 56 | 1010.4 |
| 20260509220529 | 46 | 300 | 2.0 | 8.0 | 0.00 | 0.00 | 0.00 | 54 | 1010.3 |
| 20260509220025 | 47 | 278 | 5.0 | 13.0 | 0.00 | 0.00 | 0.00 | 53 | 1010.3 |
| 20260509215521 | 47 | 284 | 4.0 | 8.0 | 0.00 | 0.00 | 0.00 | 54 | 1010.2 |
| 20260509215018 | 47 | 311 | 4.0 | 8.0 | 0.00 | 0.00 | 0.00 | 52 | 1010.0 |
| 20260509214515 | 46 | 333 | 3.0 | 10.0 | 0.00 | 0.00 | 0.00 | 54 | 1010.0 |
| 20260509214012 | 46 | 291 | 4.0 | 7.0 | 0.00 | 0.00 | 0.00 | 56 | 1010.1 |
| 20260509213509 | 46 | 292 | 5.0 | 8.0 | 0.00 | 0.00 | 0.00 | 55 | 1009.9 |
| 20260509213006 | 46 | 273 | 2.0 | 7.0 | 0.00 | 0.00 | 0.00 | 56 | 1010.0 |
| 20260509212503 | 47 | 347 | 3.0 | 3.0 | 0.00 | 0.00 | 0.00 | 54 | 1009.7 |
| 20260509212000 | 46 | 294 | 2.0 | 4.0 | 0.00 | 0.00 | 0.00 | 56 | 1009.7 |
| 20260509211455 | 46 | 296 | 6.0 | 14.0 | 0.00 | 0.00 | 0.00 | 55 | 1009.6 |
| 20260509210952 | 46 | 308 | 4.0 | 6.0 | 0.00 | 0.00 | 0.00 | 56 | 1009.7 |
| 20260509210449 | 46 | 309 | 3.0 | 7.0 | 0.00 | 0.00 | 0.00 | 56 | 1009.5 |
| 20260509205944 | 45 | 306 | 4.0 | 11.0 | 0.00 | 0.00 | 0.00 | 59 | 1009.4 |
| 20260509205439 | 45 | 27 | 7.0 | 13.0 | 0.00 | 0.00 | 0.00 | 58 | 1009.4 |
| 20260509204935 | 45 | 271 | 5.0 | 11.0 | 0.00 | 0.00 | 0.00 | 58 | 1009.4 |
| 20260509204431 | 45 | 279 | 4.0 | 6.0 | 0.00 | 0.00 | 0.00 | 59 | 1009.2 |
| 20260509203928 | 45 | 288 | 9.0 | 11.0 | 0.00 | 0.00 | 0.00 | 59 | 1009.1 |
| 20260509203424 | 44 | 281 | 2.0 | 3.0 | 0.00 | 0.00 | 0.00 | 61 | 1009.3 |
| 20260509202921 | 45 | 296 | 2.0 | 8.0 | 0.00 | 0.00 | 0.00 | 60 | 1009.1 |
| 20260509202417 | 45 | 244 | 3.0 | 6.0 | 0.00 | 0.00 | 0.00 | 60 | 1009.1 |
| 20260509201912 | 45 | 237 | 5.0 | 7.0 | 0.00 | 0.00 | 0.00 | 59 | 1009.0 |
| 20260509201408 | 45 | 291 | 3.0 | 8.0 | 0.00 | 0.00 | 0.00 | 60 | 1008.9 |
| 20260509200905 | 45 | 297 | 4.0 | 7.0 | 0.00 | 0.00 | 0.00 | 59 | 1008.9 |
| 20260509200359 | 45 | 297 | 2.0 | 4.0 | 0.00 | 0.00 | 0.00 | 58 | 1008.9 |
| 20260509195857 | 45 | 272 | 1.0 | 4.0 | 0.00 | 0.00 | 0.00 | 58 | 1008.7 |
| 20260509195357 | 45 | 328 | 3.0 | 7.0 | 0.00 | 0.00 | 0.00 | 56 | 1008.7 |
| 20260509194856 | 47 | 263 | 3.0 | 6.0 | 0.00 | 0.00 | 0.00 | 55 | 1008.6 |
| 20260509194353 | 46 | 293 | 3.0 | 4.0 | 0.00 | 0.00 | 0.00 | 54 | 1008.7 |
| 20260509193849 | 46 | 290 | 1.0 | 6.0 | 0.00 | 0.00 | 0.00 | 55 | 1008.6 |
| 20260509193349 | 46 | 319 | 3.0 | 7.0 | 0.00 | 0.00 | 0.00 | 55 | 1008.3 |
| 20260509192845 | 46 | 305 | 1.0 | 4.0 | 0.00 | 0.00 | 0.00 | 55 | 1008.4 |
| 20260509192341 | 46 | 248 | 3.0 | 9.0 | 0.00 | 0.00 | 0.00 | 55 | 1008.2 |
| 20260509191837 | 46 | 282 | 3.0 | 7.0 | 0.00 | 0.00 | 0.00 | 56 | 1008.3 |
| 20260509191333 | 47 | 268 | 2.0 | 4.0 | 0.00 | 0.00 | 0.00 | 55 | 1008.2 |
| 20260509190829 | 46 | 305 | 2.0 | 7.0 | 0.00 | 0.00 | 0.00 | 60 | 1008.0 |
| 20260509190327 | 46 | 255 | 2.0 | 4.0 | 0.00 | 0.00 | 0.00 | 57 | 1007.8 |
| 20260509185824 | 46 | 284 | 2.0 | 6.0 | 0.00 | 0.00 | 0.00 | 58 | 1007.8 |
| 20260509185320 | 47 | 267 | 3.0 | 7.0 | 0.00 | 0.00 | 0.00 | 57 | 1007.7 |
| 20260509184818 | 47 | 322 | 3.0 | 7.0 | 0.00 | 0.00 | 0.00 | 54 | 1007.5 |
| 20260509184310 | 48 | 302 | 4.0 | 7.0 | 0.00 | 0.00 | 0.00 | 53 | 1007.4 |
| 20260509183806 | 48 | 261 | 2.0 | 7.0 | 0.00 | 0.00 | 0.00 | 52 | 1007.3 |
| 20260509183301 | 48 | 263 | 2.0 | 7.0 | 0.00 | 0.00 | 0.00 | 55 | 1007.3 |